Location: Unspecified
(18.7142°N, 0.0000°E)
Time: 22:41:01
(UTC+00:00)

O/OREOS (USA 219) - Visible Passes

Search period start: 04 April 2026 00:00
Search period end: 14 April 2026 00:00
Orbit: 576 x 599 km, 72.0° (Epoch: 28 March)

Date Brightness Start Highest point End Pass type
(mag) Time Alt. Az. Time Alt. Az. Time Alt. Az.
4 Apr ? 04:35:05 36° WNW 04:35:05 36° WNW 04:38:58 10° N visible
5 Apr ? 03:06:34 12° ENE 03:06:34 12° ENE 03:07:05 10° ENE visible
5 Apr ? 04:43:05 19° NW 04:43:05 19° NW 04:45:29 10° NNW visible
6 Apr ? 03:14:25 14° NE 03:14:25 14° NE 03:15:07 10° NE visible
7 Apr ? 03:22:10 13° NNE 03:22:10 13° NNE 03:22:39 10° NNE visible
8 Apr ? 03:29:47 10° N 03:29:47 10° N 03:29:51 10° N visible
